• In India
  • List of Countries
  • For 7 days
  • Water Temperature
  • Satellite Maps
  • Weather Map
  • Weather Widgets
  • user-avatar
    Login

    Hourly Weather Dortmund

    Today, 22 January, Monday

    Time Temperature Precipitation Wind Pressure Humidity
    00:00 0°C° 0 mm 4 mps 749 mmHg 81%
    01:00 0°C° 0.1 mm 4 mps 749 mmHg 82%
    02:00 0°C° 0.1 mm 4 mps 748 mmHg 83%
    03:00 0°C° 0.1 mm 5 mps 747 mmHg 84%
    04:00 +1°C° 0.1 mm 4 mps 747 mmHg 86%
    05:00 +1°C° 0.1 mm 4 mps 746 mmHg 88%
    06:00 +2°C° 0.1 mm 3 mps 746 mmHg 90%
    07:00 +3°C° 0.1 mm 3 mps 746 mmHg 92%
    08:00 +3°C° 0.1 mm 3 mps 746 mmHg 94%
    09:00 +4°C° 0.1 mm 3 mps 746 mmHg 96%
    10:00 +4°C° 0.1 mm 3 mps 746 mmHg 95%
    11:00 +5°C° 0.1 mm 3 mps 746 mmHg 93%
    12:00 +5°C° 0 mm 3 mps 747 mmHg 91%
    13:00 +5°C° 0 mm 3 mps 747 mmHg 90%
    14:00 +5°C° 0 mm 3 mps 747 mmHg 88%
    15:00 +5°C° 0 mm 3 mps 748 mmHg 87%
    16:00 +5°C° 0.1 mm 3 mps 749 mmHg 88%
    17:00 +5°C° 0.1 mm 3 mps 749 mmHg 89%
    18:00 +4°C° 0.1 mm 3 mps 750 mmHg 89%
    19:00 +4°C° 0 mm 3 mps 751 mmHg 90%
    20:00 +4°C° 0 mm 3 mps 752 mmHg 91%
    21:00 +4°C° 0 mm 4 mps 753 mmHg 92%
    22:00 +4°C° 0 mm 3 mps 753 mmHg 93%
    23:00 +4°C° 0 mm 3 mps 754 mmHg 94%

    Tomorrow, 23 January, Tuesday

    Time Temperature Precipitation Wind Pressure Humidity
    00:00 +3°C° 0 mm 3 mps 754 mmHg 95%
    01:00 +3°C° 0.1 mm 3 mps 755 mmHg 95%
    02:00 +3°C° 0.1 mm 3 mps 755 mmHg 95%
    03:00 +3°C° 0.1 mm 3 mps 756 mmHg 96%
    04:00 +3°C° 0 mm 3 mps 756 mmHg 96%
    05:00 +3°C° 0 mm 3 mps 757 mmHg 96%
    06:00 +3°C° 0 mm 3 mps 757 mmHg 96%
    07:00 +3°C° 0 mm 3 mps 757 mmHg 94%
    08:00 +4°C° 0 mm 3 mps 757 mmHg 92%
    09:00 +4°C° 0 mm 3 mps 758 mmHg 91%
    10:00 +5°C° 0 mm 4 mps 757 mmHg 87%
    11:00 +6°C° 0 mm 4 mps 757 mmHg 84%
    12:00 +6°C° 0 mm 4 mps 757 mmHg 80%
    13:00 +7°C° 0 mm 4 mps 757 mmHg 80%
    14:00 +7°C° 0 mm 4 mps 757 mmHg 79%
    15:00 +7°C° 0 mm 4 mps 756 mmHg 79%
    16:00 +7°C° 0.2 mm 5 mps 756 mmHg 81%
    17:00 +7°C° 0.2 mm 5 mps 756 mmHg 84%
    18:00 +7°C° 0.2 mm 5 mps 755 mmHg 86%
    19:00 +7°C° 0.3 mm 5 mps 755 mmHg 87%
    20:00 +7°C° 0.3 mm 5 mps 755 mmHg 88%
    21:00 +8°C° 0.3 mm 5 mps 755 mmHg 88%
    22:00 +8°C° 0 mm 5 mps 755 mmHg 89%
    23:00 +8°C° 0 mm 5 mps 756 mmHg 90%

    Day after tomorrow, 24 January, Wednesday

    Time Temperature Precipitation Wind Pressure Humidity
    00:00 +9°C° 0 mm 5 mps 756 mmHg 90%
    01:00 +9°C° 0.1 mm 5 mps 755 mmHg 90%
    02:00 +9°C° 0.1 mm 5 mps 755 mmHg 91%
    03:00 +9°C° 0.1 mm 5 mps 755 mmHg 91%
    04:00 +9°C° 0 mm 5 mps 755 mmHg 90%
    05:00 +9°C° 0 mm 5 mps 755 mmHg 90%
    06:00 +9°C° 0 mm 5 mps 754 mmHg 89%
    07:00 +10°C° 0 mm 5 mps 754 mmHg 88%
    08:00 +10°C° 0 mm 5 mps 754 mmHg 87%
    09:00 +10°C° 0 mm 6 mps 754 mmHg 86%
    10:00 +11°C° 0 mm 6 mps 754 mmHg 83%
    11:00 +11°C° 0 mm 7 mps 753 mmHg 80%
    12:00 +12°C° 0 mm 7 mps 752 mmHg 77%
    13:00 +12°C° 0 mm 7 mps 752 mmHg 77%
    14:00 +12°C° 0 mm 7 mps 752 mmHg 77%
    15:00 +12°C° 0 mm 7 mps 751 mmHg 76%
    16:00 +11°C° 0 mm 7 mps 751 mmHg 77%
    17:00 +11°C° 0 mm 7 mps 750 mmHg 77%
    18:00 +10°C° 0 mm 7 mps 750 mmHg 78%
    19:00 +10°C° 0 mm 7 mps 750 mmHg 78%
    20:00 +10°C° 0 mm 7 mps 749 mmHg 77%
    21:00 +11°C° 0 mm 8 mps 749 mmHg 77%
    22:00 +10°C° 0.2 mm 7 mps 749 mmHg 78%
    23:00 +10°C° 0.2 mm 7 mps 749 mmHg 79%

    25 January, Thursday

    Time Temperature Precipitation Wind Pressure Humidity
    00:00 +10°C° 0.2 mm 7 mps 749 mmHg 80%
    01:00 +10°C° 0.8 mm 6 mps 749 mmHg 82%
    02:00 +9°C° 0.8 mm 5 mps 749 mmHg 85%
    03:00 +10°C° 0.8 mm 4 mps 749 mmHg 87%
    04:00 +8°C° 0.8 mm 4 mps 749 mmHg 87%
    05:00 +8°C° 0.8 mm 3 mps 749 mmHg 86%
    06:00 +8°C° 0.8 mm 3 mps 749 mmHg 86%
    07:00 +8°C° 0.6 mm 3 mps 750 mmHg 86%
    08:00 +7°C° 0.6 mm 3 mps 750 mmHg 86%
    09:00 +7°C° 0.6 mm 2 mps 750 mmHg 86%
    10:00 +7°C° 0.3 mm 2 mps 750 mmHg 85%
    11:00 +7°C° 0.3 mm 2 mps 750 mmHg 84%
    12:00 +7°C° 0.3 mm 2 mps 750 mmHg 82%
    13:00 +8°C° 0.1 mm 3 mps 750 mmHg 81%
    14:00 +8°C° 0.1 mm 3 mps 749 mmHg 80%
    15:00 +8°C° 0.1 mm 3 mps 749 mmHg 79%
    16:00 +7°C° 0 mm 3 mps 749 mmHg 81%
    17:00 +7°C° 0 mm 3 mps 750 mmHg 82%
    18:00 +7°C° 0 mm 3 mps 750 mmHg 83%
    19:00 +7°C° 0 mm 3 mps 750 mmHg 84%
    20:00 +7°C° 0 mm 3 mps 750 mmHg 84%
    21:00 +5°C° 0 mm 3 mps 751 mmHg 85%
    22:00 +5°C° 0 mm 3 mps 751 mmHg 86%
    23:00 +5°C° 0 mm 3 mps 751 mmHg 87%

    26 January, Friday

    Time Temperature Precipitation Wind Pressure Humidity
    00:00 +4°C° 0 mm 3 mps 751 mmHg 88%
    01:00 +4°C° 0 mm 3 mps 751 mmHg 88%
    02:00 +5°C° 0 mm 2 mps 751 mmHg 89%
    03:00 +5°C° 0 mm 2 mps 751 mmHg 90%
    04:00 +5°C° 0 mm 2 mps 751 mmHg 90%
    05:00 +4°C° 0 mm 2 mps 752 mmHg 89%
    06:00 +4°C° 0 mm 2 mps 752 mmHg 89%
    07:00 +4°C° 0 mm 2 mps 752 mmHg 88%
    08:00 +5°C° 0 mm 2 mps 752 mmHg 86%
    09:00 +5°C° 0 mm 2 mps 753 mmHg 84%
    10:00 +5°C° 0 mm 3 mps 753 mmHg 80%
    11:00 +5°C° 0 mm 3 mps 753 mmHg 77%
    12:00 +7°C° 0 mm 3 mps 753 mmHg 73%
    13:00 +7°C° 0 mm 3 mps 753 mmHg 74%
    14:00 +7°C° 0 mm 3 mps 753 mmHg 75%
    15:00 +7°C° 0 mm 3 mps 753 mmHg 76%
    16:00 +6°C° 0 mm 2 mps 753 mmHg 78%
    17:00 +6°C° 0 mm 2 mps 754 mmHg 80%
    18:00 +5°C° 0 mm 2 mps 754 mmHg 82%
    19:00 +5°C° 0 mm 2 mps 755 mmHg 84%
    20:00 +4°C° 0 mm 2 mps 755 mmHg 86%
    21:00 +4°C° 0 mm 2 mps 755 mmHg 87%
    22:00 +4°C° 0.1 mm 2 mps 756 mmHg 89%
    23:00 +3°C° 0.1 mm 3 mps 756 mmHg 90%

    27 January, Saturday

    Time Temperature Precipitation Wind Pressure Humidity
    00:00 +3°C° 0.1 mm 3 mps 757 mmHg 91%
    01:00 +3°C° 0 mm 3 mps 757 mmHg 91%
    02:00 +3°C° 0 mm 3 mps 758 mmHg 91%
    03:00 +3°C° 0 mm 3 mps 758 mmHg 91%
    04:00 +3°C° 0.1 mm 3 mps 759 mmHg 90%
    05:00 +2°C° 0.1 mm 3 mps 759 mmHg 89%
    06:00 +2°C° 0.1 mm 3 mps 760 mmHg 88%
    07:00 +2°C° 0 mm 3 mps 761 mmHg 86%
    08:00 +2°C° 0 mm 3 mps 762 mmHg 84%
    09:00 +3°C° 0 mm 2 mps 763 mmHg 82%
    10:00 +3°C° 0 mm 3 mps 763 mmHg 77%
    11:00 +4°C° 0 mm 3 mps 763 mmHg 72%
    12:00 +5°C° 0 mm 3 mps 764 mmHg 67%
    13:00 +4°C° 0 mm 3 mps 764 mmHg 67%
    14:00 +5°C° 0 mm 2 mps 764 mmHg 67%
    15:00 +5°C° 0 mm 2 mps 764 mmHg 67%
    16:00 +4°C° 0 mm 2 mps 765 mmHg 71%
    17:00 +4°C° 0 mm 2 mps 765 mmHg 75%
    18:00 +3°C° 0 mm 2 mps 765 mmHg 79%
    19:00 +2°C° 0 mm 2 mps 765 mmHg 80%
    20:00 +2°C° 0 mm 2 mps 766 mmHg 81%
    21:00 +1°C° 0 mm 3 mps 766 mmHg 82%
    22:00 +1°C° 0 mm 3 mps 766 mmHg 81%
    23:00 0°C° 0 mm 4 mps 766 mmHg 79%
    Show more